Location: Llanfihangel-Ystrad
(52.1833°N, 4.1667°W)
Time: 09:09:20
(UTC+00:00)

Meteor 2-3 Rocket - Pass Details

Date: 17 February 2020
Orbit: 842 x 885 km, 81.3° (Epoch: 03 April)

Event Time Altitude Azimuth Distance (km) Brightness Sun altitude
Rises 04:55:59 0° 347° (NNW) 3,459 6.9 -24.0°
Reaches altitude 10° 04:58:24 10° 348° (NNW) 2,524 6.1 -23.7°
Maximum altitude 05:04:10 84° 77° (ENE) 886 3.7 -22.8°
Drops below altitude 10° 05:09:57 10° 166° (SSE) 2,532 6.2 -21.9°
Sets 05:12:24 0° 167° (SSE) 3,470 7.0 -21.6°
